Weather History for KACV - July, 2014

Change the Weather History Date:

Sunday, July 13, 2014

  Actual Average Record
Temperature  
Mean Temperature 58 °F -  
Max Temperature 66 °F 61 °F 71 °F (2007)
Min Temperature 53 °F 49 °F 44 °F (2013)
Degree Days  
Heating Degree Days 6    
Growing Degree Days 8 (Base 50)    
Moisture  
Dew Point 54 °F    
Average Humidity 88    
Maximum Humidity 100    
Minimum Humidity 73    
Precipitation  
Precipitation 0.00 in - - ()
Sea Level Pressure  
Sea Level Pressure 30.14 in    
Wind  
Wind Speed 7 mph (NNW)    
Max Wind Speed 17 mph    
Max Gust Speed 22 mph    
Visibility 6 miles    
Events Fog    
Averages and records for this station are not official NWS values.
T = Trace of Precipitation, MM = Missing Value Source: NWS Daily Summary

Daily Weather History Graph

Daily Weather History Graph

Search for Another Location

Airport or City:

Trip Planner

Search our weather history database for the weather conditions in past years. The results will help you decide how hot, cold, wet, or windy it might be!

Date:

Astronomy

Jul. 13, 2014 Rise Set
Actual Time 5:55 AM PDT 8:48 PM PDT
Civil Twilight 5:23 AM PDT 9:20 PM PDT
Nautical Twilight 4:41 AM PDT 10:01 PM PDT
Astronomical Twilight 3:54 AM PDT 10:49 PM PDT
Moon 9:39 PM PDT (7/13) 7:34 AM PDT (7/13)
Length of Visible Light 15h 57m
Length of Day
14h 52m
Full, 97% of the Moon is Illuminated
Jul 13
Full
Jul 18
Last Quarter
Jul 26
New
Aug 3
First Quarter
Aug 10
Full

Hourly Weather History & Observations

Time (PDT) Temp. Dew Point Humidity Pressure Visibility Wind Dir Wind Speed Gust Speed Precip Events Conditions
12:42 AM 55.0 °F 53.1 °F 93% 30.13 in 2.5 mi NW 4.6 mph - N/A   Overcast
12:53 AM 55.0 °F 53.1 °F 93% 30.15 in 1.8 mi NNW 5.8 mph - N/A   Overcast
1:19 AM 55.0 °F 53.1 °F 93% 30.12 in 2.5 mi NW 4.6 mph - N/A   Overcast
1:34 AM 55.0 °F 53.1 °F 93% 30.12 in 1.5 mi NW 5.8 mph - N/A   Overcast
1:53 AM 55.0 °F 53.1 °F 93% 30.14 in 1.0 mi NNW 8.1 mph - N/A   Mist
2:03 AM 54.0 °F 53.1 °F 97% 30.12 in 0.5 mi NNW 5.8 mph - N/A Fog Fog
2:12 AM 54.0 °F 53.1 °F 97% 30.12 in 0.2 mi NW 4.6 mph - N/A Fog Fog
2:42 AM 54.0 °F 52.0 °F 93% 30.12 in 0.2 mi NW 4.6 mph - N/A Fog Fog
2:53 AM 54.0 °F 52.0 °F 93% 30.14 in 0.5 mi NNW 5.8 mph - N/A Fog Fog
3:01 AM 54.0 °F 53.1 °F 97% 30.12 in 0.8 mi NNW 4.6 mph - N/A   Mist
3:18 AM 54.0 °F 53.1 °F 97% 30.12 in 1.2 mi NNW 5.8 mph - N/A   Overcast
3:27 AM 54.0 °F 53.1 °F 97% 30.12 in 0.8 mi NNW 5.8 mph - N/A   Mist
3:35 AM 54.0 °F 53.1 °F 97% 30.12 in 2.0 mi NNW 4.6 mph - N/A   Overcast
3:53 AM 54.0 °F 53.1 °F 97% 30.13 in 4.0 mi NNW 6.9 mph - N/A   Overcast
4:53 AM 54.0 °F 52.0 °F 93% 30.14 in 6.0 mi NNW 8.1 mph - N/A   Overcast
5:53 AM 54.0 °F 52.0 °F 93% 30.14 in 7.0 mi NNW 6.9 mph - N/A   Overcast
6:51 AM 53.6 °F 53.6 °F 100% 30.14 in 4.0 mi North 3.5 mph - N/A   Overcast
6:53 AM 54.0 °F 53.1 °F 97% 30.16 in 4.0 mi North 4.6 mph - N/A   Overcast
7:35 AM 55.0 °F 53.1 °F 93% 30.14 in 10.0 mi Calm Calm - N/A   Overcast
7:53 AM 55.0 °F 53.1 °F 93% 30.16 in 10.0 mi Calm Calm - N/A   Overcast
8:08 AM 55.0 °F 54.0 °F 96% 30.15 in 10.0 mi Calm Calm - N/A   Overcast
8:53 AM 55.9 °F 54.0 °F 93% 30.17 in 10.0 mi NW 4.6 mph - N/A   Overcast
9:14 AM 55.9 °F 54.0 °F 93% 30.15 in 10.0 mi WNW 4.6 mph - N/A   Overcast
9:53 AM 57.9 °F 55.0 °F 90% 30.17 in 10.0 mi NNW 3.5 mph - N/A   Overcast
10:53 AM 62.1 °F 54.0 °F 75% 30.16 in 10.0 mi WNW 9.2 mph - N/A   Overcast
11:53 AM 59.0 °F 53.1 °F 81% 30.17 in 10.0 mi NW 9.2 mph - N/A   Overcast
12:53 PM 60.1 °F 54.0 °F 80% 30.17 in 10.0 mi NNW 11.5 mph - N/A   Overcast
1:53 PM 64.0 °F 55.0 °F 73% 30.17 in 10.0 mi NW 13.8 mph - N/A   Overcast
2:53 PM 64.0 °F 55.0 °F 73% 30.17 in 10.0 mi NNW 15.0 mph - N/A   Mostly Cloudy
3:53 PM 63.0 °F 55.0 °F 75% 30.16 in 10.0 mi NW 16.1 mph 21.9 mph N/A   Clear
4:53 PM 64.0 °F 55.0 °F 73% 30.14 in 10.0 mi NW 17.3 mph - N/A   Clear
5:53 PM 63.0 °F 55.0 °F 75% 30.14 in 10.0 mi NNW 15.0 mph - N/A   Clear
6:53 PM 62.1 °F 55.0 °F 78% 30.13 in 10.0 mi NW 16.1 mph - N/A   Clear
7:53 PM 62.1 °F 55.0 °F 78% 30.13 in 10.0 mi NNW 11.5 mph - N/A   Clear
8:44 PM 61.0 °F 55.0 °F 81% 30.11 in 10.0 mi NNW 10.4 mph - N/A   Mostly Cloudy
8:53 PM 61.0 °F 55.0 °F 81% 30.13 in 10.0 mi NNW 10.4 mph - N/A   Overcast
9:53 PM 61.0 °F 55.0 °F 81% 30.14 in 10.0 mi NNW 10.4 mph - N/A   Overcast
10:53 PM 61.0 °F 55.0 °F 81% 30.14 in 10.0 mi NNW 11.5 mph - N/A   Overcast
11:53 PM 59.0 °F 54.0 °F 83% 30.12 in 10.0 mi NNW 10.4 mph - N/A   Overcast